DW8522 Weather Reports


time (UTC)temp
C
wind
direction
speed
KPH
gust
KPH
rain 1hr
cm
rain 24hr
cm
rain mn
cm
humidity
%
barometer
mb
20260510051536 16 207 4.8 12.9 0.00 0.08 0.05 79 1002.1
20260510050035 16 281 4.8 17.7 0.00 0.08 0.05 79 1001.9
20260510044541 17 156 4.8 19.3 0.00 0.08 0.05 78 1002.0
20260510043032 17 159 4.8 19.3 0.00 0.08 0.05 77 1001.9
20260510041538 17 226 4.8 20.9 0.00 0.08 0.05 75 1001.8
20260510040032 17 255 4.8 17.7 0.00 0.08 0.05 78 1001.6
20260510034530 17 297 11.3 24.1 0.00 0.08 0.05 76 1001.6
20260510033028 17 191 6.4 24.1 0.00 0.08 0.05 78 1001.6
20260510031545 18 233 8.0 30.6 0.00 0.08 0.05 76 1001.8
20260510030033 18 211 11.3 24.1 0.00 0.08 0.05 74 1001.3
20260510024525 18 146 11.3 30.6 0.00 0.08 0.05 74 1001.3
20260510023023 18 200 11.3 29.0 0.00 0.08 0.05 72 1001.2
20260510021528 18 212 9.7 29.0 0.00 0.08 0.05 74 1001.1
20260510020019 18 231 8.0 32.2 0.00 0.08 0.05 77 1001.3
20260510014519 17 224 8.0 27.4 0.00 0.08 0.05 77 1001.3
20260510013015 17 173 4.8 22.5 0.00 0.08 0.05 77 1001.5
20260510011515 18 235 8.0 17.7 0.00 0.08 0.05 77 1001.6
20260510010013 18 284 4.8 22.5 0.00 0.08 0.05 76 1001.6
20260510004512 18 311 6.4 20.9 0.00 0.08 0.05 76 1001.7
20260510003008 17 330 6.4 22.5 0.00 0.08 0.05 77 1001.8
20260510001509 17 271 6.4 19.3 0.00 0.08 0.05 78 1002.0
20260510000012 17 128 9.7 17.7 0.00 0.08 0.05 76 1002.2
20260509234509 17 281 8.0 16.1 0.00 0.08 0.05 76 1002.2
20260509233006 17 155 8.0 20.9 0.00 0.08 0.05 75 1002.5
20260509231502 17 304 9.7 20.9 0.00 0.08 0.05 77 1002.6
20260509230100 17 191 3.2 14.5 0.00 0.08 0.05 79 1003.0
20260509224559 17 260 4.8 17.7 0.00 0.08 0.05 79 1002.8
20260509223056 16 293 8.0 22.5 0.00 0.08 0.05 80 1002.8
20260509221553 16 200 3.2 20.9 0.00 0.08 0.05 81 1002.9
20260509220052 16 259 9.7 22.5 0.00 0.08 0.05 81 1002.9
20260509214548 15 152 6.4 17.7 0.00 0.08 0.05 83 1002.8
20260509213046 15 218 4.8 14.5 0.00 0.08 0.05 84 1002.8
20260509211544 15 321 4.8 16.1 0.03 0.08 0.05 85 1002.9
20260509210051 14 141 4.8 16.1 0.03 0.08 0.05 85 1002.9
20260509204538 14 172 4.8 11.3 0.03 0.08 0.05 87 1002.9
20260509203035 13 245 3.2 9.7 0.03 0.08 0.05 89 1002.9
20260509201534 13 160 3.2 11.3 0.00 0.05 0.05 90 1002.8
20260509200033 13 200 3.2 11.3 0.00 0.05 0.05 91 1002.8
20260509194534 12 184 3.2 12.9 0.00 0.05 0.05 91 1002.6
20260509193032 12 215 1.6 6.4 0.00 0.05 0.05 91 1002.7
20260509191530 12 181 1.6 9.7 0.00 0.05 0.05 90 1002.5
20260509190035 12 215 3.2 12.9 0.00 0.05 0.05 90 1002.4
20260509184535 12 211 1.6 9.7 0.00 0.05 0.05 89 1002.5
20260509183027 12 186 1.6 6.4 0.00 0.05 0.05 90 1002.5
20260509181527 12 135 1.6 6.4 0.00 0.05 0.05 90 1002.4
20260509180026 12 177 1.6 8.0 0.00 0.05 0.05 90 1002.4
20260509174525 12 193 0.0 6.4 0.00 0.05 0.05 90 1002.1
20260509173051 12 208 1.6 4.8 0.00 0.05 0.05 90 1002.1
20260509171528 12 174 0.0 8.0 0.00 0.05 0.05 90 1002.0
20260509170021 12 285 1.6 6.4 0.00 0.05 0.05 90 1001.9
20260509164519 12 127 0.0 4.8 0.00 0.05 0.05 91 1001.9
20260509163022 12 208 0.0 1.6 0.00 0.05 0.05 90 1001.9
20260509161516 12 149 0.0 6.4 0.00 0.05 0.05 91 1002.0
20260509160020 12 217 1.6 6.4 0.00 0.05 0.05 91 1002.0
20260509154512 12 205 0.0 4.8 0.00 0.15 0.05 91 1002.1
20260509153016 13 184 0.0 6.4 0.00 0.15 0.05 91 1002.3
20260509151508 13 315 1.6 6.4 0.00 0.15 0.05 93 1002.4
20260509150009 12 188 0.0 4.8 0.00 0.15 0.05 93 1002.3
20260509144506 13 178 1.6 4.8 0.00 0.69 0.05 94 1002.5
20260509143006 13 187 0.0 3.2 0.00 0.69 0.05 94 1002.3
20260509141502 13 184 0.0 6.4 0.00 0.69 0.05 94 1002.4
20260509140001 13 179 1.6 4.8 0.00 0.69 0.05 94 1002.6
20260509134559 13 146 0.0 4.8 0.05 0.71 0.05 94 1002.7
20260509133104 13 248 0.0 6.4 0.05 0.71 0.05 95 1002.5
20260509131604 13 166 0.0 1.6 0.05 0.71 0.05 95 1002.5
20260509130125 13 121 0.0 6.4 0.05 0.71 0.05 95 1002.8
20260509124553 13 150 0.0 0.0 0.00 0.69 0.00 95 1002.9
20260509123118 13 144 0.0 0.0 0.00 0.69 0.00 95 1002.8
20260509121550 13 144 0.0 0.0 0.00 0.69 0.00 95 1002.9
20260509120051 13 144 0.0 1.6 0.00 0.69 0.00 94 1002.8
20260509114618 13 149 0.0 0.0 0.00 0.69 0.69 94 1002.9
20260509113050 13 150 0.0 0.0 0.00 0.69 0.69 93 1002.7
20260509111543 13 149 0.0 0.0 0.00 0.69 0.69 93 1002.7
20260509110051 14 149 0.0 0.0 0.00 0.69 0.69 93 1002.9
20260509104542 15 172 0.0 0.0 0.00 0.71 0.69 92 1002.8
20260509103044 15 172 0.0 0.0 0.00 0.71 0.69 92 1003.2
20260509101553 15 172 0.0 1.6 0.03 0.71 0.69 91 1003.2
20260509100041 15 209 1.6 6.4 0.03 0.71 0.69 91 1003.5
20260509094540 15 104 0.0 1.6 0.03 0.71 0.69 91 1003.5
20260509093039 15 149 0.0 3.2 0.03 0.71 0.69 91 1003.6
20260509091543 15 145 0.0 1.6 0.00 0.71 0.66 90 1003.6
20260509090042 15 145 0.0 1.6 0.00 0.71 0.66 89 1003.7
20260509084538 15 145 0.0 4.8 0.00 0.71 0.66 88 1003.6
20260509083037 16 169 0.0 3.2 0.00 0.71 0.66 88 1003.2
20260509081537 16 135 0.0 4.8 0.00 0.71 0.66 87 1003.0
20260509080043 16 214 1.6 6.4 0.00 0.71 0.66 87 1003.0
20260509074538 16 305 3.2 9.7 0.00 0.71 0.66 87 1003.0
20260509073039 16 212 1.6 6.4 0.00 0.71 0.66 87 1003.0
20260509071534 15 134 0.0 4.8 0.00 0.71 0.66 87 1003.1
20260509070034 16 158 0.0 4.8 0.00 0.71 0.66 86 1003.1
20260509064541 15 183 1.6 3.2 0.00 0.71 0.66 88 1003.0
20260509063036 15 142 0.0 1.6 0.00 0.71 0.66 88 1002.9
20260509061534 15 142 0.0 0.0 0.00 0.71 0.66 87 1003.0
20260509060033 16 143 0.0 3.2 0.00 0.71 0.66 87 1002.9
20260509054537 16 120 0.0 1.6 0.00 0.71 0.66 86 1002.6
20260509053031 17 215 0.0 6.4 0.00 0.71 0.66 85 1002.6